Language: 


Des rapports , des résumés tant et plus, au choix de chacun....


Données statistiques de la station
Quotidien Rapport Novembre 27, 2017 Unités:  Anglais    Métrique   les deux
« Précédent Jour
Suivant Jour »
Quotidien Hebdomadaire Mensuel Annuel Actuel
  Haut: Bas: Moyen:
Température: TemperatureC °F 0.5 °F 7.1 °F
Pt de rosée: DewpointC °F 1.0 °F 7.3 °F
Humidité: Humidity % 97 % 98 %
Vitesse du vent: WindSpeedKMH mph 0.0 mph 11.6 mph
Rafales: WindSpeedGustKMH mph - -
Vent:- - WSW
Pression: PressurehPa in 0.0 in -
Précipitation: 32.8 in    
Historical Graphs
 
 
Données statistiques pour Novembre 27, 2017
Heure Température Point de rosée Pression Vent Vitesse du vent Refales Humidité Pluie (taux horaire)
TemperatureC °F DewpointC °F PressurehPa in Calm     Humidity % HourlyPrecipMM in
00:02 0.6 °F 1.0 °F 1023.9 in Calm   5.8 mph 97 % 0.0 in
00:07 0.6 °F 1.0 °F 1023.9 in Calm     97 % 0.0 in
00:12 0.5 °F 1.0 °F 1022.9 in Calm     97 % 0.0 in
00:17 0.6 °F 1.0 °F 1022.9 in Calm     98 % 0.0 in
00:23 0.7 °F 1.0 °F 1022.9 in Calm   1.4 mph 98 % 0.0 in
00:27 0.8 °F 1.0 °F 1022.9 in West 4.0 mph 4.7 mph 98 % 0.0 in
00:32 0.8 °F 1.0 °F 1022.9 in Calm   5.0 mph 98 % 0.0 in
00:37 0.8 °F 1.0 °F 1022.9 in Calm   5.0 mph 98 % 0.0 in
00:43 0.7 °F 1.0 °F 1022.9 in Calm     98 % 0.0 in
00:53 0.5 °F 1.0 °F 1022.9 in Calm     97 % 0.0 in
00:58 0.6 °F 1.0 °F 1022.9 in Calm     97 % 0.0 in
01:03 0.6 °F 1.0 °F 1022.9 in Calm     98 % 0.0 in
01:08 0.8 °F 1.0 °F 1022.9 in Calm     98 % 0.0 in
01:13 1.0 °F 1.0 °F 1022.9 in Calm     98 % 0.0 in
01:18 1.1 °F 1.0 °F 1022.9 in Calm   2.6 mph 98 % 0.0 in
01:23 1.3 °F 1.0 °F 1022.9 in Calm   4.7 mph 98 % 0.0 in
01:28 1.5 °F 2.0 °F 1022.9 in WSW 6.1 mph 6.4 mph 98 % 0.0 in
01:33 1.8 °F 2.0 °F 1022.9 in Calm   6.4 mph 98 % 0.0 in
01:38 1.9 °F 2.0 °F 1022.9 in Calm   5.5 mph 98 % 0.0 in
01:43 2.0 °F 2.0 °F 1022.9 in Calm   7.9 mph 98 % 0.0 in
01:48 2.1 °F 2.0 °F 1022.9 in SSW 7.9 mph 7.9 mph 98 % 0.0 in
01:53 2.3 °F 3.0 °F 1022.9 in SW 3.2 mph 7.9 mph 98 % 0.0 in
01:58 2.4 °F 3.0 °F 1022.9 in SSW 6.9 mph 9.0 mph 98 % 0.0 in
02:03 2.5 °F 3.0 °F 1022.9 in Calm   9.0 mph 98 % 0.0 in
02:08 2.7 °F 3.0 °F 1022.9 in SW 7.9 mph 9.7 mph 98 % 0.0 in
02:13 2.8 °F 3.0 °F 1022.9 in SW 8.7 mph 9.7 mph 98 % 0.0 in
02:18 3.0 °F 3.0 °F 1022.9 in SSW 5.8 mph 11.9 mph 98 % 0.0 in
02:24 3.1 °F 3.0 °F 1022.9 in SW 7.6 mph 13.7 mph 98 % 0.0 in
02:29 3.3 °F 3.0 °F 1021.9 in WSW 8.7 mph 13.7 mph 98 % 0.0 in
02:34 3.4 °F 3.0 °F 1021.9 in SW 7.9 mph 12.2 mph 98 % 0.0 in
02:39 3.6 °F 4.0 °F 1021.9 in SW 4.3 mph 12.2 mph 98 % 0.0 in
02:44 3.6 °F 4.0 °F 1021.9 in SSW 9.3 mph 12.6 mph 98 % 0.0 in
02:49 3.7 °F 4.0 °F 1021.9 in SSW 9.7 mph 13.0 mph 98 % 0.0 in
02:51 3.7 °F 4.0 °F 1021.9 in WSW 7.9 mph 13.0 mph 98 % 0.0 in
02:56 3.8 °F 4.0 °F 1021.9 in SW 8.7 mph 13.0 mph 98 % 0.0 in
03:02 3.9 °F 4.0 °F 0.0 in SW 10.8 mph 12.6 mph 98 % 0.0 in
03:07 4.1 °F 4.0 °F 1021.9 in SW 11.6 mph 12.6 mph 98 % 0.0 in
03:12 4.1 °F 4.0 °F 1020.9 in WSW 6.9 mph 13.0 mph 98 % 0.0 in
03:17 4.1 °F 4.0 °F 1020.9 in WSW 6.9 mph 13.0 mph 98 % 0.0 in
03:22 4.1 °F 4.0 °F 1020.9 in WSW 9.0 mph 11.9 mph 98 % 0.0 in
03:27 4.2 °F 4.0 °F 1020.9 in SW 7.9 mph 11.9 mph 98 % 0.0 in
03:32 4.2 °F 4.0 °F 1020.9 in SW 9.3 mph 12.2 mph 98 % 0.0 in
03:37 4.3 °F 4.0 °F 1020.9 in Calm   12.2 mph 98 % 0.0 in
03:42 4.3 °F 4.0 °F 1020.9 in SW 10.5 mph 12.6 mph 98 % 0.0 in
03:47 4.4 °F 4.0 °F 1020.9 in SSW 6.9 mph 12.6 mph 98 % 0.0 in
03:52 4.5 °F 5.0 °F 1020.9 in SSW 10.5 mph 14.0 mph 98 % 0.0 in
03:57 4.6 °F 5.0 °F 1020.9 in SW 9.0 mph 14.0 mph 98 % 0.0 in
04:02 4.6 °F 5.0 °F 1020.9 in South 9.0 mph 13.7 mph 98 % 0.0 in
04:07 4.7 °F 5.0 °F 1020.9 in SW 9.0 mph 13.7 mph 98 % 0.0 in
04:12 4.8 °F 5.0 °F 1020.9 in SW 6.9 mph 13.7 mph 98 % 0.0 in
04:17 4.8 °F 5.0 °F 1020.9 in SSW 12.6 mph 12.6 mph 98 % 0.0 in
04:22 4.9 °F 5.0 °F 1020.9 in SSW 6.4 mph 12.6 mph 98 % 0.0 in
04:25 5.0 °F 5.0 °F 1020.9 in SSW 10.1 mph 14.3 mph 98 % 0.0 in
04:30 5.1 °F 5.0 °F 1019.9 in SSW 10.5 mph 14.3 mph 98 % 0.0 in
04:35 5.2 °F 5.0 °F 1019.9 in SW 9.7 mph 15.8 mph 98 % 0.0 in
04:40 5.3 °F 6.0 °F 1019.9 in SW 10.5 mph 15.8 mph 98 % 0.0 in
04:45 5.3 °F 6.0 °F 1019.9 in SSW 10.5 mph 14.0 mph 98 % 0.0 in
04:50 5.4 °F 6.0 °F 1019.9 in SSW 11.9 mph 15.1 mph 98 % 0.0 in
04:55 5.4 °F 6.0 °F 1019.9 in SSW 9.7 mph 15.1 mph 98 % 0.0 in
05:00 5.5 °F 6.0 °F 1018.8 in WSW 11.9 mph 14.0 mph 98 % 0.0 in
05:05 5.5 °F 6.0 °F 1018.8 in SW 12.2 mph 14.0 mph 98 % 0.0 in
05:10 5.6 °F 6.0 °F 1018.8 in SSW 11.9 mph 13.0 mph 98 % 0.0 in
05:20 5.7 °F 6.0 °F 1018.2 in SSW 9.0 mph 16.3 mph 98 % 0.0 in
05:25 5.8 °F 6.0 °F 1018.2 in SSW 13.0 mph 16.3 mph 98 % 0.0 in
05:30 5.9 °F 6.0 °F 1018.2 in SSW 11.9 mph 16.3 mph 98 % 0.0 in
05:35 6.0 °F 6.0 °F 1018.2 in SW 9.7 mph 14.0 mph 98 % 0.0 in
05:40 6.1 °F 6.0 °F 1018.2 in SSW 9.0 mph 14.0 mph 98 % 0.0 in
05:42 6.1 °F 6.0 °F 1018.8 in SSW 9.0 mph 17.7 mph 98 % 0.0 in
05:47 6.2 °F 6.0 °F 1018.8 in SSW 22.7 mph 22.7 mph 98 % 0.0 in
05:53 6.3 °F 6.0 °F 1018.8 in SW 17.7 mph 22.7 mph 98 % 0.0 in
05:58 6.4 °F 6.0 °F 1018.8 in SSW 10.1 mph 19.8 mph 98 % 0.0 in
06:03 6.4 °F 6.0 °F 1018.8 in SW 14.0 mph 19.8 mph 98 % 0.0 in
06:08 6.5 °F 7.0 °F 1018.8 in SW 13.0 mph 16.9 mph 98 % 0.0 in
06:13 6.5 °F 7.0 °F 1018.2 in SW 14.0 mph 18.0 mph 98 % 0.0 in
06:18 6.6 °F 7.0 °F 1018.2 in SSW 13.7 mph 18.0 mph 98 % 0.3 in
06:23 6.7 °F 7.0 °F 1018.2 in WSW 13.0 mph 16.6 mph 98 % 0.3 in
06:28 6.7 °F 7.0 °F 1018.2 in SW 11.6 mph 16.3 mph 98 % 0.3 in
06:33 6.7 °F 7.0 °F 1018.2 in WSW 10.1 mph 16.6 mph 98 % 0.3 in
06:38 6.8 °F 7.0 °F 1018.2 in SSW 14.0 mph 16.6 mph 98 % 0.3 in
06:43 6.9 °F 7.0 °F 1018.2 in SW 19.1 mph 20.9 mph 98 % 0.3 in
06:48 6.9 °F 7.0 °F 1018.2 in SW 10.8 mph 20.9 mph 98 % 0.5 in
06:53 7.0 °F 7.0 °F 1018.2 in SW 10.1 mph 17.7 mph 98 % 0.5 in
06:58 7.1 °F 7.0 °F 1018.2 in SW 12.6 mph 17.7 mph 98 % 0.8 in
06:59 7.1 °F 7.0 °F 1018.2 in WSW 13.7 mph 17.7 mph 98 % 0.8 in
07:04 7.1 °F 7.0 °F 1018.2 in SSW 12.2 mph 16.6 mph 98 % 1.3 in
07:09 7.2 °F 7.0 °F 1018.2 in SW 13.7 mph 23.3 mph 98 % 1.3 in
07:14 7.2 °F 7.0 °F 1016.8 in SW 18.0 mph 23.3 mph 98 % 1.3 in
07:19 7.3 °F 7.0 °F 1016.8 in SW 13.7 mph 19.8 mph 98 % 1.3 in
07:24 7.3 °F 7.0 °F 1016.8 in SW 10.1 mph 19.8 mph 98 % 1.5 in
07:29 7.4 °F 7.0 °F 1016.8 in SSW 20.1 mph 23.3 mph 98 % 1.5 in
07:34 7.4 °F 7.0 °F 1016.8 in WSW 17.7 mph 23.3 mph 98 % 1.8 in
07:40 7.4 °F 7.0 °F 1016.8 in SW 19.5 mph 23.0 mph 98 % 1.8 in
07:45 7.4 °F 7.0 °F 1016.8 in SW 15.4 mph 23.0 mph 98 % 1.8 in
07:50 7.5 °F 8.0 °F 1016.8 in SSW 16.3 mph 23.0 mph 98 % 1.8 in
07:55 7.5 °F 8.0 °F 1016.8 in SSW 19.8 mph 23.3 mph 98 % 1.8 in
08:00 7.5 °F 8.0 °F 1016.8 in SW 14.0 mph 23.3 mph 98 % 1.8 in
08:05 7.5 °F 8.0 °F 1016.8 in WSW 13.7 mph 23.0 mph 98 % 1.8 in
08:10 7.5 °F 8.0 °F 1016.8 in SSW 10.1 mph 23.0 mph 98 % 2.3 in
08:15 7.5 °F 8.0 °F 1016.8 in SSW 12.6 mph 20.6 mph 98 % 1.8 in
08:20 7.5 °F 8.0 °F 1016.8 in SW 15.8 mph 20.6 mph 98 % 2.3 in
08:35 7.6 °F 8.0 °F 1016.8 in SW 13.7 mph 21.2 mph 98 % 2.5 in
08:40 7.6 °F 8.0 °F 1016.8 in West 20.9 mph 24.8 mph 98 % 2.5 in
08:45 7.7 °F 8.0 °F 1016.8 in SSW 16.9 mph 27.7 mph 98 % 3.0 in
08:50 7.7 °F 8.0 °F 1016.8 in WSW 20.9 mph 27.7 mph 98 % 3.0 in
08:56 7.8 °F 8.0 °F 1016.1 in SW 16.3 mph 27.7 mph 98 % 3.0 in
09:01 7.8 °F 8.0 °F 1016.1 in WSW 13.7 mph 27.4 mph 98 % 3.0 in
09:06 7.8 °F 8.0 °F 1016.1 in SSW 12.6 mph 24.5 mph 98 % 3.0 in
09:11 7.8 °F 8.0 °F 1016.1 in WSW 13.0 mph 23.8 mph 98 % 3.0 in
09:16 7.8 °F 8.0 °F 1016.1 in SSW 17.7 mph 23.8 mph 98 % 3.0 in
09:21 7.8 °F 8.0 °F 1016.1 in SSW 10.5 mph 23.8 mph 98 % 3.3 in
09:26 7.8 °F 8.0 °F 1015.1 in SW 16.6 mph 23.3 mph 98 % 3.3 in
09:31 7.8 °F 8.0 °F 1015.1 in SW 24.5 mph 24.5 mph 98 % 3.0 in
09:36 7.9 °F 8.0 °F 1015.1 in WSW 15.4 mph 24.5 mph 98 % 3.0 in
09:41 7.9 °F 8.0 °F 1014.1 in SSW 16.9 mph 22.4 mph 98 % 2.8 in
09:46 7.9 °F 8.0 °F 1014.1 in SW 16.3 mph 27.4 mph 98 % 2.8 in
09:52 8.0 °F 8.0 °F 1014.1 in SW 16.9 mph 27.4 mph 98 % 2.8 in
09:57 8.0 °F 8.0 °F 1015.1 in SW 16.6 mph 22.4 mph 98 % 2.5 in
10:02 8.0 °F 8.0 °F 1015.1 in SW 17.2 mph 27.4 mph 98 % 2.5 in
10:07 8.0 °F 8.0 °F 1015.1 in WSW 17.2 mph 27.4 mph 98 % 2.5 in
10:12 8.1 °F 8.0 °F 1015.1 in WSW 20.1 mph 28.5 mph 98 % 2.3 in
10:17 8.1 °F 8.0 °F 1015.1 in WSW 17.7 mph 28.5 mph 98 % 2.3 in
10:22 8.1 °F 8.0 °F 1015.1 in SW 16.6 mph 26.2 mph 98 % 2.5 in
10:27 8.1 °F 8.0 °F 1015.1 in SW 19.8 mph 29.9 mph 98 % 2.3 in
10:32 8.2 °F 8.0 °F 1015.1 in WSW 13.0 mph 30.6 mph 98 % 2.5 in
10:37 8.2 °F 8.0 °F 1015.1 in SW 20.1 mph 30.6 mph 98 % 2.5 in
10:42 8.2 °F 8.0 °F 1014.1 in SW 19.1 mph 31.4 mph 98 % 2.5 in
10:47 8.3 °F 9.0 °F 1014.1 in SW 16.6 mph 31.4 mph 98 % 2.8 in
10:52 8.3 °F 9.0 °F 1014.1 in WSW 23.8 mph 29.1 mph 98 % 2.5 in
10:57 8.4 °F 9.0 °F 1014.1 in SW 14.0 mph 25.9 mph 98 % 2.8 in
11:02 8.4 °F 9.0 °F 1014.1 in SW 15.8 mph 28.5 mph 98 % 2.8 in
11:07 8.4 °F 9.0 °F 1014.1 in SSW 19.5 mph 30.9 mph 98 % 2.8 in
11:12 8.4 °F 9.0 °F 1014.1 in SW 19.5 mph 30.9 mph 98 % 2.8 in
11:17 8.4 °F 9.0 °F 1014.1 in SW 15.8 mph 31.4 mph 98 % 2.8 in
11:22 8.5 °F 9.0 °F 1014.1 in WSW 20.1 mph 31.4 mph 98 % 2.8 in
11:27 8.5 °F 9.0 °F 1014.1 in WSW 19.5 mph 24.8 mph 98 % 3.3 in
11:32 8.5 °F 9.0 °F 1014.1 in SW 24.8 mph 30.6 mph 98 % 3.3 in
11:37 8.6 °F 9.0 °F 1014.1 in SW 21.2 mph 30.6 mph 98 % 3.3 in
11:42 8.6 °F 9.0 °F 1013.1 in SW 16.3 mph 28.5 mph 98 % 3.3 in
11:47 8.6 °F 9.0 °F 1013.1 in SW 20.1 mph 28.5 mph 98 % 3.0 in
11:52 8.6 °F 9.0 °F 1013.1 in SSW 27.4 mph 31.7 mph 98 % 3.3 in
11:57 8.6 °F 9.0 °F 1013.1 in WSW 31.4 mph 31.7 mph 98 % 3.6 in
12:02 8.7 °F 9.0 °F 1013.1 in WSW 21.2 mph 31.7 mph 98 % 3.8 in
12:07 8.7 °F 9.0 °F 1013.1 in WSW 25.6 mph 31.7 mph 98 % 3.8 in
12:12 8.7 °F 9.0 °F 1013.1 in WSW 20.9 mph 30.2 mph 98 % 4.1 in
12:17 8.7 °F 9.0 °F 1013.1 in SW 23.3 mph 31.4 mph 98 % 4.3 in
12:22 8.8 °F 9.0 °F 1013.1 in WSW 19.8 mph 36.0 mph 98 % 4.3 in
12:28 8.8 °F 9.0 °F 1013.1 in WSW 22.7 mph 36.0 mph 98 % 4.3 in
12:33 8.8 °F 9.0 °F 1013.1 in SW 19.1 mph 35.2 mph 98 % 4.6 in
12:38 8.8 °F 9.0 °F 1013.1 in WSW 16.9 mph 27.7 mph 98 % 5.6 in
12:43 8.9 °F 9.0 °F 1013.1 in WSW 17.2 mph 25.3 mph 98 % 5.8 in
12:48 8.9 °F 9.0 °F 1013.1 in West 16.3 mph 32.0 mph 98 % 6.1 in
12:53 8.9 °F 9.0 °F 1013.1 in SW 19.8 mph 32.0 mph 98 % 6.3 in
12:58 9.0 °F 9.0 °F 1012.1 in SW 20.6 mph 35.6 mph 98 % 6.9 in
13:03 9.0 °F 9.0 °F 1012.1 in WSW 23.3 mph 35.6 mph 98 % 7.1 in
13:08 9.0 °F 9.0 °F 1012.1 in WSW 15.1 mph 33.8 mph 98 % 7.4 in
13:13 9.0 °F 9.0 °F 1013.1 in WSW 18.3 mph 27.7 mph 98 % 7.9 in
13:18 9.0 °F 9.0 °F 1013.1 in West 12.2 mph 27.7 mph 98 % 10.9 in
13:23 9.0 °F 9.0 °F 1013.1 in NW 9.0 mph 23.3 mph 98 % 11.2 in
13:28 9.1 °F 9.0 °F 1012.1 in WSW 21.2 mph 21.2 mph 98 % 11.7 in
13:33 9.1 °F 9.0 °F 1012.1 in WSW 20.9 mph 28.5 mph 98 % 11.7 in
13:38 9.1 °F 9.0 °F 1012.1 in WSW 20.6 mph 37.8 mph 98 % 11.4 in
13:43 9.2 °F 9.0 °F 1012.1 in WSW 17.2 mph 37.8 mph 98 % 11.2 in
13:48 9.2 °F 9.0 °F 1012.1 in WSW 11.9 mph 28.5 mph 98 % 10.7 in
13:53 9.2 °F 9.0 °F 1012.1 in WSW 13.0 mph 22.4 mph 98 % 10.2 in
13:58 9.2 °F 9.0 °F 1011.1 in WSW 20.1 mph 20.6 mph 98 % 9.4 in
14:03 9.3 °F 9.0 °F 1011.1 in SW 15.8 mph 27.4 mph 98 % 8.9 in
14:08 9.3 °F 9.0 °F 1011.1 in SW 23.8 mph 27.4 mph 98 % 8.4 in
14:13 9.3 °F 9.0 °F 1011.1 in WSW 21.2 mph 24.8 mph 98 % 7.4 in
14:18 9.4 °F 9.0 °F 1011.1 in SSW 15.8 mph 23.8 mph 98 % 4.6 in
14:23 9.4 °F 9.0 °F 1011.1 in SW 15.1 mph 19.5 mph 98 % 3.8 in
14:28 9.4 °F 9.0 °F 1011.1 in SSW 15.4 mph 23.0 mph 98 % 2.5 in
14:33 9.5 °F 10.0 °F 1011.1 in WSW 15.8 mph 23.0 mph 98 % 1.8 in
14:38 9.5 °F 10.0 °F 1011.1 in SW 20.9 mph 24.8 mph 98 % 1.3 in
14:43 9.5 °F 10.0 °F 1011.1 in SW 15.4 mph 24.8 mph 98 % 1.3 in
14:44 9.5 °F 10.0 °F 1011.1 in SW 11.9 mph 24.8 mph 98 % 1.3 in
14:50 9.6 °F 10.0 °F 1011.1 in WSW 12.6 mph 17.2 mph 98 % 1.3 in
14:55 9.6 °F 10.0 °F 1011.1 in WSW 12.6 mph 17.2 mph 98 % 0.8 in
15:00 9.6 °F 10.0 °F 1011.1 in WSW 15.8 mph 16.6 mph 98 % 1.3 in
15:05 9.6 °F 10.0 °F 1011.1 in WSW 12.2 mph 16.6 mph 98 % 1.3 in
15:10 9.6 °F 10.0 °F 1011.1 in WSW 11.1 mph 16.6 mph 98 % 0.8 in
15:15 9.6 °F 10.0 °F 1011.1 in WSW 19.1 mph 19.1 mph 98 % 0.8 in
15:20 9.6 °F 10.0 °F 1011.1 in West 13.0 mph 19.1 mph 98 % 0.5 in
15:25 9.6 °F 10.0 °F 1011.1 in WSW 12.6 mph 18.3 mph 98 % 0.5 in
15:30 9.5 °F 10.0 °F 1011.1 in WSW 14.8 mph 20.6 mph 98 % 0.5 in
15:35 9.5 °F 10.0 °F 1011.1 in WSW 16.3 mph 21.2 mph 98 % 0.5 in
15:40 9.5 °F 10.0 °F 1011.1 in WSW 14.0 mph 21.2 mph 98 % 0.5 in
15:46 9.4 °F 9.0 °F 1011.1 in WSW 16.6 mph 20.6 mph 98 % 0.3 in
15:59 9.3 °F 9.0 °F 1010.0 in WSW 16.6 mph 21.2 mph 98 % 0.0 in
16:04 9.2 °F 9.0 °F 1010.0 in WSW 11.9 mph 20.1 mph 98 % 0.0 in
16:10 9.2 °F 9.0 °F 1010.0 in WSW 15.8 mph 19.8 mph 98 % 0.0 in
16:15 9.1 °F 9.0 °F 1010.0 in WSW 11.9 mph 20.1 mph 98 % 0.0 in
16:16 9.1 °F 9.0 °F 1010.0 in WSW 14.0 mph 20.1 mph 98 % 0.0 in
16:21 9.0 °F 9.0 °F 1010.0 in WSW 10.1 mph 16.9 mph 98 % 0.0 in
16:26 9.0 °F 9.0 °F 1010.0 in SW 11.9 mph 16.9 mph 98 % 0.0 in
16:31 9.0 °F 9.0 °F 1010.0 in WSW 12.2 mph 19.8 mph 98 % 0.0 in
16:36 8.9 °F 9.0 °F 1010.0 in WSW 17.7 mph 19.8 mph 98 % 0.0 in
16:41 8.9 °F 9.0 °F 1010.0 in WSW 13.0 mph 17.7 mph 98 % 0.0 in
16:46 8.8 °F 9.0 °F 1010.0 in WSW 9.7 mph 19.5 mph 98 % 0.0 in
16:51 8.7 °F 9.0 °F 1010.0 in WSW 10.5 mph 19.5 mph 98 % 0.0 in
16:56 8.6 °F 9.0 °F 1010.0 in WSW 10.1 mph 14.0 mph 98 % 0.0 in
17:01 8.6 °F 9.0 °F 1010.0 in WSW 11.6 mph 14.0 mph 98 % 0.0 in
17:06 8.5 °F 9.0 °F 1010.0 in WSW 16.3 mph 16.3 mph 98 % 0.0 in
17:11 8.5 °F 9.0 °F 1010.0 in WSW 10.1 mph 16.3 mph 98 % 0.0 in
17:16 8.5 °F 9.0 °F 1010.0 in WSW 11.6 mph 16.9 mph 98 % 0.0 in
17:21 8.5 °F 9.0 °F 1010.0 in WSW 13.0 mph 17.2 mph 98 % 0.0 in
17:26 8.5 °F 9.0 °F 1010.0 in WSW 11.9 mph 19.8 mph 98 % 0.0 in
17:31 8.5 °F 9.0 °F 1010.0 in SW 11.9 mph 19.8 mph 98 % 0.0 in
17:36 8.5 °F 9.0 °F 1010.0 in WSW 13.0 mph 17.2 mph 98 % 0.0 in
17:41 8.5 °F 9.0 °F 1010.0 in WSW 10.5 mph 14.0 mph 98 % 0.0 in
17:46 8.5 °F 9.0 °F 1010.0 in WSW 14.0 mph 16.6 mph 98 % 0.0 in
17:52 8.6 °F 9.0 °F 1010.0 in SW 14.3 mph 19.8 mph 98 % 0.0 in
17:57 8.6 °F 9.0 °F 1010.0 in WSW 13.7 mph 19.8 mph 98 % 0.0 in
18:02 8.6 °F 9.0 °F 1010.0 in WSW 12.6 mph 19.5 mph 98 % 0.0 in
18:07 8.6 °F 9.0 °F 1010.0 in WSW 13.7 mph 18.0 mph 98 % 0.0 in
18:12 8.7 °F 9.0 °F 1010.0 in WSW 12.2 mph 18.0 mph 98 % 0.0 in
18:17 8.7 °F 9.0 °F 1010.0 in WSW 14.3 mph 20.1 mph 98 % 0.0 in
18:22 8.7 °F 9.0 °F 1010.0 in WSW 14.0 mph 20.6 mph 98 % 0.0 in
18:27 8.7 °F 9.0 °F 1009.0 in WSW 13.0 mph 21.2 mph 98 % 0.0 in
18:32 8.7 °F 9.0 °F 1009.0 in WSW 13.7 mph 21.2 mph 98 % 0.0 in
18:37 8.7 °F 9.0 °F 1009.0 in WSW 12.6 mph 20.9 mph 98 % 0.0 in
18:42 8.7 °F 9.0 °F 1009.0 in WSW 10.5 mph 19.5 mph 98 % 0.0 in
18:47 8.7 °F 9.0 °F 1009.0 in WSW 10.5 mph 16.9 mph 98 % 0.0 in
18:52 8.8 °F 9.0 °F 1009.0 in WSW 11.6 mph 17.7 mph 98 % 0.0 in
18:53 8.8 °F 9.0 °F 1009.0 in SW 11.9 mph 17.7 mph 98 % 0.0 in
18:58 8.8 °F 9.0 °F 1009.0 in SW 9.7 mph 17.7 mph 98 % 0.0 in
19:03 8.8 °F 9.0 °F 1009.0 in WSW 12.6 mph 17.7 mph 98 % 0.0 in
19:08 8.8 °F 9.0 °F 1009.0 in WSW 11.9 mph 17.7 mph 98 % 0.0 in
19:13 8.8 °F 9.0 °F 1009.0 in WSW 13.7 mph 16.6 mph 98 % 0.0 in
19:18 8.8 °F 9.0 °F 1009.0 in SW 7.9 mph 15.4 mph 98 % 0.0 in
19:23 8.8 °F 9.0 °F 1009.0 in SW 8.7 mph 12.6 mph 98 % 0.0 in
19:28 8.8 °F 9.0 °F 1009.0 in WSW 10.1 mph 14.3 mph 98 % 0.0 in
19:33 8.8 °F 9.0 °F 1009.0 in West 3.2 mph 14.3 mph 98 % 0.0 in
19:38 8.7 °F 9.0 °F 1009.0 in WSW 11.9 mph 16.9 mph 98 % 0.0 in
19:43 8.7 °F 9.0 °F 1009.0 in WSW 10.5 mph 16.9 mph 98 % 0.0 in
19:45 8.7 °F 9.0 °F 1009.0 in WSW 13.7 mph 16.9 mph 98 % 0.0 in
19:50 8.6 °F 9.0 °F 1009.0 in WSW 12.6 mph 16.3 mph 98 % 0.0 in
19:55 8.6 °F 9.0 °F 1009.0 in WSW 13.0 mph 16.3 mph 98 % 0.0 in
20:00 8.6 °F 9.0 °F 1009.0 in WSW 10.5 mph 14.0 mph 98 % 0.0 in
20:05 8.6 °F 9.0 °F 1009.0 in WSW 10.1 mph 15.4 mph 98 % 0.0 in
20:10 8.5 °F 9.0 °F 1009.0 in WSW 10.1 mph 15.4 mph 98 % 0.0 in
20:15 8.5 °F 9.0 °F 1009.0 in Calm   13.7 mph 98 % 0.0 in
20:20 8.5 °F 9.0 °F 1009.0 in WSW 9.7 mph 10.8 mph 98 % 0.0 in
20:25 8.4 °F 9.0 °F 1009.0 in WSW 9.0 mph 10.5 mph 98 % 0.0 in
20:30 8.4 °F 9.0 °F 1009.0 in West 9.3 mph 11.6 mph 98 % 0.0 in
20:35 8.4 °F 9.0 °F 1009.0 in WSW 7.9 mph 11.6 mph 98 % 0.0 in
20:40 8.5 °F 9.0 °F 1009.0 in West 6.1 mph 11.6 mph 98 % 0.0 in
20:45 8.5 °F 9.0 °F 1008.0 in West 10.1 mph 11.9 mph 98 % 0.0 in
20:50 8.5 °F 9.0 °F 1008.0 in West 6.4 mph 11.9 mph 98 % 0.0 in
20:55 8.4 °F 9.0 °F 1008.0 in Calm   9.3 mph 98 % 0.0 in
21:00 8.4 °F 9.0 °F 1008.0 in West 7.6 mph 9.0 mph 98 % 0.0 in
21:05 8.3 °F 9.0 °F 1008.0 in Calm   7.9 mph 98 % 0.0 in
21:10 8.3 °F 9.0 °F 1008.0 in West 5.0 mph 7.9 mph 98 % 0.0 in
21:15 8.3 °F 9.0 °F 1008.0 in West 5.8 mph 10.5 mph 98 % 0.0 in
21:20 8.3 °F 9.0 °F 1008.0 in SSW 8.7 mph 11.6 mph 98 % 0.0 in
21:25 8.3 °F 9.0 °F 1008.0 in WSW 5.8 mph 11.6 mph 98 % 0.3 in
21:30 8.2 °F 8.0 °F 1009.0 in West 9.7 mph 16.3 mph 98 % 0.3 in
21:35 8.2 °F 8.0 °F 1009.0 in West 2.6 mph 16.3 mph 98 % 0.3 in
21:40 8.2 °F 8.0 °F 1009.0 in Calm   10.1 mph 98 % 0.3 in
21:45 8.1 °F 8.0 °F 1009.0 in West 7.6 mph 9.7 mph 98 % 0.3 in
21:50 8.1 °F 8.0 °F 1009.0 in West 4.3 mph 7.6 mph 98 % 0.3 in
21:55 8.0 °F 8.0 °F 1009.0 in West 5.5 mph 7.6 mph 98 % 0.3 in
22:01 7.9 °F 8.0 °F 1009.0 in West 9.0 mph 9.3 mph 98 % 0.3 in
22:06 7.9 °F 8.0 °F 1009.0 in West 9.7 mph 14.0 mph 98 % 0.3 in
22:11 7.9 °F 8.0 °F 1009.0 in WSW 9.3 mph 14.0 mph 98 % 0.3 in
22:12 7.9 °F 8.0 °F 1009.0 in West 9.3 mph 14.0 mph 98 % 0.3 in
22:17 7.8 °F 8.0 °F 1009.0 in West 7.2 mph 13.0 mph 98 % 0.3 in
22:22 7.8 °F 8.0 °F 1009.0 in Calm   11.6 mph 98 % 0.3 in
22:27 7.7 °F 8.0 °F 1009.0 in WSW 8.7 mph 10.1 mph 98 % 0.0 in
22:32 7.7 °F 8.0 °F 1009.0 in West 8.7 mph 11.9 mph 98 % 0.0 in
22:37 7.7 °F 8.0 °F 1009.0 in Calm   11.9 mph 98 % 0.0 in
22:39 7.6 °F 8.0 °F 1009.0 in Calm   10.1 mph 98 % 0.0 in
22:44 7.6 °F 8.0 °F 1008.0 in Calm   9.0 mph 98 % 0.0 in
22:49 7.5 °F 8.0 °F 1008.0 in WSW 5.5 mph 9.0 mph 98 % 0.0 in
22:54 7.5 °F 8.0 °F 1008.0 in West 4.0 mph 6.9 mph 98 % 0.0 in
22:59 7.4 °F 7.0 °F 1008.0 in WSW 5.8 mph 8.7 mph 98 % 0.0 in
23:04 7.3 °F 7.0 °F 1008.0 in WSW 7.9 mph 9.0 mph 98 % 0.0 in
23:09 7.3 °F 7.0 °F 1008.0 in WSW 5.5 mph 9.0 mph 98 % 0.0 in
23:15 7.2 °F 7.0 °F 1008.0 in Calm   9.7 mph 98 % 0.0 in
23:19 7.1 °F 7.0 °F 1008.0 in WSW 7.9 mph 10.1 mph 98 % 0.0 in
23:25 7.1 °F 7.0 °F 1008.0 in WSW 9.7 mph 10.5 mph 98 % 0.0 in
23:30 7.1 °F 7.0 °F 1008.0 in Calm   10.5 mph 98 % 0.3 in
23:35 7.1 °F 7.0 °F 1008.0 in WSW 4.0 mph 10.5 mph 98 % 0.3 in
23:39 7.1 °F 7.0 °F 1008.0 in WSW 9.7 mph 10.5 mph 98 % 0.3 in
23:42 7.0 °F 7.0 °F 1008.0 in West 10.1 mph 10.5 mph 98 % 0.3 in
23:47 7.0 °F 7.0 °F 1008.0 in WSW 6.4 mph 10.5 mph 98 % 0.3 in
23:52 7.0 °F 7.0 °F 1008.0 in West 9.7 mph 11.6 mph 98 % 0.3 in
23:57 7.0 °F 7.0 °F 1007.0 in West 9.0 mph 12.2 mph 98 % 0.3 in
Le Gheer Warneton
Courtoisie de Weather Underground - 2.25 mb

Mise a jour : 17/02/2018 20:43:11
Généré par Cumulus 1.9.4 (1099)